Anchorage Merrill, AK

6:07 PM AKDT on April 28, 2017 (GMT -0800)
Merrill

Weather History for PAMR - August, 2013

Change the Weather History Date:

Saturday, August 24, 2013

  Actual Average Record
Temperature  
Mean Temperature 60 °F -  
Max Temperature 69 °F 61 °F 75 °F (2004)
Min Temperature 51 °F 47 °F 40 °F (1993)
Degree Days  
Heating Degree Days 5    
Growing Degree Days 10 (Base 50)    
Moisture  
Dew Point 48 °F    
Average Humidity 74    
Maximum Humidity 100    
Minimum Humidity 38    
Precipitation  
Precipitation 0.03 in - - ()
Sea Level Pressure  
Sea Level Pressure 29.63 in    
Wind  
Wind Speed 3 mph (North)    
Max Wind Speed 8 mph    
Max Gust Speed -    
Visibility 8 miles    
Events Fog    
Averages and records for this station are not official NWS values.
T = Trace of Precipitation, MM = Missing Value Source: NWS Daily Summary

Daily Weather History Graph

Daily Weather History Graph

Search for Another Location

Airport or City:

Trip Planner

Search our weather history database for the weather conditions in past years. The results will help you decide how hot, cold, wet, or windy it might be!

Date:

Astronomy

Aug. 24, 2013 Rise Set
Actual Time 6:32 AM AKDT 9:29 PM AKDT
Civil Twilight 5:42 AM AKDT 10:18 PM AKDT
Nautical Twilight 4:32 AM AKDT 11:27 PM AKDT
Astronomical Twilight 2:34 AM AKDT 1:37 AM AKDT
Moon 9:56 PM AKDT (8/24) 12:10 PM AKDT (8/24)
Length of Visible Light 16h 36m
Length of Day
14h 57m
Waning Gibbous, 83% of the Moon is Illuminated
Aug 24
Waning Gibbous
Aug 28
Last Quarter
Sep 5
New
Sep 12
First Quarter
Sep 19
Full

Hourly Weather History & Observations

Time (AKDT) Temp. Dew Point Humidity Pressure Visibility Wind Dir Wind Speed Gust Speed Precip Events Conditions
12:53 AM 55.9 °F 53.1 °F 90% 29.57 in 10.0 mi Calm Calm - 0.03 in   Overcast
1:53 AM 55.0 °F 53.1 °F 93% 29.59 in 10.0 mi Calm Calm - N/A   Overcast
2:53 AM 54.0 °F 52.0 °F 93% 29.59 in 10.0 mi Calm Calm - N/A   Mostly Cloudy
3:53 AM 52.0 °F 50.0 °F 93% 29.59 in 10.0 mi Calm Calm - N/A   Scattered Clouds
4:53 AM 53.1 °F 51.1 °F 93% 29.59 in 10.0 mi Calm Calm - N/A   Overcast
5:53 AM 53.1 °F 52.0 °F 96% 29.60 in 10.0 mi NW 4.6 mph - N/A   Mostly Cloudy
6:04 AM 53.6 °F 51.8 °F 94% 29.59 in 3.0 mi NNW 8.1 mph - N/A   Overcast
6:49 AM 51.8 °F 51.8 °F 100% 29.60 in 0.5 mi NNE 4.6 mph - N/A Fog Fog
6:53 AM 52.0 °F 51.1 °F 97% 29.61 in 0.5 mi North 4.6 mph - N/A Fog Fog
6:54 AM 51.8 °F 51.8 °F 100% 29.61 in 1.0 mi North 5.8 mph - N/A   Overcast
6:55 AM 51.8 °F 51.8 °F 100% 29.61 in 1.0 mi North 5.8 mph - N/A   Overcast
7:53 AM 52.0 °F 50.0 °F 93% 29.63 in 1.5 mi North 3.5 mph - N/A   Overcast
8:24 AM 51.8 °F 48.2 °F 88% 29.63 in 1.5 mi Calm Calm - N/A   Mostly Cloudy
8:26 AM 51.8 °F 50.0 °F 94% 29.63 in 10.0 mi NNE 3.5 mph - N/A   Mostly Cloudy
8:53 AM 54.0 °F 48.9 °F 83% 29.63 in 10.0 mi NE 5.8 mph - N/A   Mostly Cloudy
9:00 AM 53.6 °F 48.2 °F 82% 29.63 in 10.0 mi NE 4.6 mph - N/A   Clear
9:53 AM 55.9 °F 46.9 °F 72% 29.64 in 10.0 mi Calm Calm - N/A   Clear
10:53 AM 57.0 °F 46.9 °F 69% 29.65 in 10.0 mi NNW 4.6 mph - N/A   Partly Cloudy
11:53 AM 61.0 °F 48.9 °F 64% 29.65 in 10.0 mi Variable 3.5 mph - N/A   Partly Cloudy
12:53 PM 63.0 °F 48.0 °F 58% 29.65 in 10.0 mi NNW 3.5 mph - N/A   Clear
1:53 PM 66.0 °F 46.9 °F 50% 29.64 in 10.0 mi Variable 4.6 mph - N/A   Clear
2:53 PM 68.0 °F 44.1 °F 42% 29.64 in 10.0 mi NNW 8.1 mph - N/A   Clear
3:53 PM 69.1 °F 48.0 °F 47% 29.64 in 10.0 mi Variable 3.5 mph - N/A   Clear
4:53 PM 68.0 °F 46.0 °F 45% 29.64 in 10.0 mi Variable 4.6 mph - N/A   Clear
5:53 PM 68.0 °F 44.1 °F 42% 29.64 in 10.0 mi NNW 4.6 mph - N/A   Clear
6:53 PM 69.1 °F 42.1 °F 38% 29.64 in 10.0 mi NW 3.5 mph - N/A   Clear
7:53 PM 68.0 °F 43.0 °F 40% 29.64 in 10.0 mi North 6.9 mph - N/A   Scattered Clouds
8:53 PM 64.9 °F 42.1 °F 43% 29.65 in 10.0 mi NNW 6.9 mph - N/A   Scattered Clouds
9:53 PM 61.0 °F 46.0 °F 58% 29.66 in 10.0 mi Calm Calm - N/A   Clear
10:53 PM 59.0 °F 46.0 °F 62% 29.68 in 10.0 mi Variable 3.5 mph - N/A   Clear
11:53 PM 55.9 °F 46.0 °F 69% 29.70 in 10.0 mi Calm Calm - N/A   Scattered Clouds